Find Zhongxing 18

NORAD ID: 44493 Int'l Des: 2019-053 Owner: ZLZB Country: CN operational
MEOELLIPTICALHEO_ELLIPTICAL

現在のビュー

3D地球を読み込み中...

Zhongxing 18について

説明を読み込み中...

次回通過

Passes for default location (London). Set your location on the main map for personalized predictions.

高度履歴

Loading altitude history...

軌道要素

1 44493U 19053A 26149.67525406 .00015362 -26016-6 20554-3 0 9997
2 44493 28.4750 33.3196 6244742 316.3569 8.5741 3.77097667 69179
Epoch: May 29, 2026 • Age: 26 hours

現在のステータス

高度 5441.1 km
速度 6.68 km/s
衛星直下点 23.56°N, 72.66°W
打ち上げ日 Aug 19, 2019
運用期間 6.7 years
タイプ other

技術仕様

分類 Payload
質量 5250.00 kg
乾燥質量 2500.00 kg
総質量 5250.00 kg
長さ 5.00 m
直径 2.50 m
スパン 30.00 m
形状 Box + 2 Pan
製造者 CAST
バスタイプ DFH-4
フェーズステータス In Orbit
所有者/国 ZLZB/CN

Most Searched